Tracking 35274 objects as of 10-Sep-2026
HD Live streaming from Space Station
objects crossing your sky now

O3B FM17

Track O3B FM17 now!
10-day predictions
O3B FM17 is classified as:


NORAD ID: 44114
Int'l Code: 2019-020C
Launch date: April 4, 2019
Source: O3b Networks (O3B)
Launch site: FRENCH GUIANA (FRGUI)
Your satellite tracking list
Your tracking list is empty




NASA's NSSDC Master Catalog

Two Line Element Set (TLE):
1 44114U 19020C   26252.87286466 -.00000028  00000-0  00000-0 0  9991
2 44114   0.0475  14.1550 0002557 156.4301 189.4187  5.00115675135756
Source of the keplerian elements: AFSPC